Time,TemperatureF,DewpointF,PressureIn,WindDirection,WindDirectionDegrees,WindSpeedMPH,WindSpeedGustMPH,Humidity,HourlyPrecipIn,Conditions,Clouds,dailyrainin,SolarRadiationWatts/m^2,SoftwareType,DateUTC
2013-04-26 00:02:00,30.0,26.0,-100.00,ESE,110,0.0,0.0,85,0.00,,,0.02,0.000000,,2013-04-26 05:02:00,
2013-04-26 00:32:00,29.0,26.0,-100.00,ESE,114,0.0,0.0,88,0.00,,,0.02,0.000000,,2013-04-26 05:32:00,
2013-04-26 00:42:00,29.0,26.0,-100.00,ESE,114,0.0,0.0,88,0.00,,,0.02,0.000000,,2013-04-26 05:42:00,
2013-04-26 00:52:00,29.0,26.0,-100.00,ESE,114,0.0,0.0,88,0.00,,,0.02,0.000000,,2013-04-26 05:52:00,
2013-04-26 01:02:00,29.0,26.0,-100.00,ESE,114,0.0,0.0,88,0.00,,,0.02,0.000000,,2013-04-26 06:02:00,
2013-04-26 01:11:00,29.0,26.0,-100.00,ESE,114,0.0,0.0,88,0.00,,,0.02,0.000000,,2013-04-26 06:11:00,
2013-04-26 01:32:00,29.0,26.0,-100.00,NNW,337,0.0,2.0,89,0.00,,,-99.99,0.000000,,2013-04-26 06:32:00,
2013-04-26 01:42:00,29.0,26.0,-100.00,NNW,337,0.0,2.0,89,0.00,,,-99.99,0.000000,,2013-04-26 06:42:00,
2013-04-26 01:52:00,29.0,26.0,-100.00,NNW,337,0.0,2.0,89,0.00,,,-99.99,0.000000,,2013-04-26 06:52:00,
2013-04-26 02:01:00,29.0,26.0,-100.00,NNW,337,0.0,2.0,89,0.00,,,-99.99,0.000000,,2013-04-26 07:01:00,
2013-04-26 02:11:00,29.0,26.0,-100.00,NNW,337,0.0,2.0,89,0.00,,,-99.99,0.000000,,2013-04-26 07:11:00,
2013-04-26 02:32:00,30.0,27.0,-100.00,NW,316,0.0,0.0,88,0.00,,,0.02,0.000000,,2013-04-26 07:32:00,
2013-04-26 02:42:00,30.0,27.0,-100.00,NW,316,0.0,0.0,88,0.00,,,0.02,0.000000,,2013-04-26 07:42:00,
2013-04-26 02:52:00,30.0,27.0,-100.00,NW,316,0.0,0.0,88,0.00,,,0.02,0.000000,,2013-04-26 07:52:00,
2013-04-26 03:02:00,30.0,27.0,-100.00,NW,316,0.0,0.0,88,0.00,,,0.02,0.000000,,2013-04-26 08:02:00,
2013-04-26 03:11:00,30.0,27.0,-100.00,NW,316,0.0,0.0,88,0.00,,,0.02,0.000000,,2013-04-26 08:11:00,
2013-04-26 03:32:00,31.0,27.0,-100.00,NW,308,0.0,0.0,86,0.00,,,0.00,0.000000,,2013-04-26 08:32:00,
2013-04-26 03:42:00,31.0,27.0,-100.00,NW,308,0.0,0.0,86,0.00,,,0.00,0.000000,,2013-04-26 08:42:00,
2013-04-26 03:52:00,31.0,27.0,-100.00,NW,308,0.0,0.0,86,0.00,,,0.00,0.000000,,2013-04-26 08:52:00,
2013-04-26 04:01:00,31.0,27.0,-100.00,NW,308,0.0,0.0,86,0.00,,,0.00,0.000000,,2013-04-26 09:01:00,
2013-04-26 04:11:00,31.0,27.0,-100.00,NW,308,0.0,0.0,86,0.00,,,0.00,0.000000,,2013-04-26 09:11:00,
2013-04-26 04:12:00,33.0,30.0,-100.00,NNW,333,0.0,0.0,87,0.00,,,0.00,0.000000,,2013-04-26 09:12:00,
2013-04-26 04:33:00,33.0,30.0,-100.00,NNW,333,0.0,0.0,87,0.00,,,0.00,0.000000,,2013-04-26 09:33:00,
2013-04-26 04:43:00,33.0,30.0,-100.00,NNW,333,0.0,0.0,87,0.00,,,0.00,0.000000,,2013-04-26 09:43:00,
2013-04-26 04:53:00,33.0,30.0,-100.00,NNW,333,0.0,0.0,87,0.00,,,0.00,0.000000,,2013-04-26 09:53:00,
2013-04-26 05:03:00,33.0,30.0,-100.00,NNW,333,0.0,0.0,87,0.00,,,0.00,0.000000,,2013-04-26 10:03:00,
2013-04-26 05:33:00,35.0,32.0,-100.00,ENE,74,0.0,4.0,89,0.00,,,0.00,0.000000,,2013-04-26 10:33:00,
2013-04-26 05:42:00,35.0,32.0,-100.00,ENE,74,0.0,4.0,89,0.00,,,0.00,0.000000,,2013-04-26 10:42:00,
2013-04-26 05:52:00,35.0,32.0,-100.00,ENE,74,0.0,4.0,89,0.00,,,0.00,0.000000,,2013-04-26 10:52:00,
2013-04-26 06:02:00,35.0,32.0,-100.00,ENE,74,0.0,4.0,89,0.00,,,0.00,0.000000,,2013-04-26 11:02:00,
2013-04-26 06:11:00,35.0,32.0,-100.00,ENE,74,0.0,4.0,89,0.00,,,0.00,0.000000,,2013-04-26 11:11:00,
2013-04-26 06:32:00,36.0,34.0,-100.00,ESE,108,2.0,4.0,91,0.00,,,0.00,0.000000,,2013-04-26 11:32:00,
2013-04-26 06:42:00,36.0,34.0,-100.00,ESE,108,2.0,4.0,91,0.00,,,0.00,0.000000,,2013-04-26 11:42:00,
2013-04-26 06:52:00,36.0,34.0,-100.00,ESE,108,2.0,4.0,91,0.00,,,0.00,0.000000,,2013-04-26 11:52:00,
2013-04-26 07:01:00,36.0,34.0,-100.00,ESE,108,2.0,4.0,91,0.00,,,0.00,0.000000,,2013-04-26 12:01:00,
2013-04-26 07:11:00,36.0,34.0,-100.00,ESE,108,2.0,4.0,91,0.00,,,0.00,0.000000,,2013-04-26 12:11:00,
2013-04-26 07:32:00,40.0,32.0,-100.00,ESE,119,3.0,4.0,72,0.00,,,-99.99,16.000000,,2013-04-26 12:32:00,
2013-04-26 07:42:00,40.0,32.0,-100.00,ESE,119,3.0,4.0,72,0.00,,,-99.99,16.000000,,2013-04-26 12:42:00,
2013-04-26 07:52:00,40.0,32.0,-100.00,ESE,119,3.0,4.0,72,0.00,,,-99.99,16.000000,,2013-04-26 12:52:00,
2013-04-26 08:01:00,40.0,32.0,-100.00,ESE,119,3.0,4.0,72,0.00,,,-99.99,16.000000,,2013-04-26 13:01:00,
2013-04-26 08:11:00,40.0,32.0,-100.00,ESE,119,3.0,4.0,72,0.00,,,-99.99,16.000000,,2013-04-26 13:11:00,
2013-04-26 08:32:00,44.0,30.0,-100.00,SSE,158,3.0,12.0,57,0.00,,,0.00,101.000000,,2013-04-26 13:32:00,
2013-04-26 08:42:00,44.0,30.0,-100.00,SSE,158,3.0,12.0,57,0.00,,,0.00,101.000000,,2013-04-26 13:42:00,
2013-04-26 08:52:00,44.0,30.0,-100.00,SSE,158,3.0,12.0,57,0.00,,,0.00,101.000000,,2013-04-26 13:52:00,
2013-04-26 09:01:00,44.0,30.0,-100.00,SSE,158,3.0,12.0,57,0.00,,,0.00,101.000000,,2013-04-26 14:01:00,
2013-04-26 09:11:00,44.0,30.0,-100.00,SSE,158,3.0,12.0,57,0.00,,,0.00,101.000000,,2013-04-26 14:11:00,
2013-04-26 09:12:00,51.0,31.0,-100.00,South,177,7.0,13.0,47,0.00,,,0.00,325.000000,,2013-04-26 14:12:00,
2013-04-26 09:42:00,51.0,31.0,-100.00,South,177,7.0,13.0,47,0.00,,,0.00,325.000000,,2013-04-26 14:42:00,
2013-04-26 09:52:00,51.0,31.0,-100.00,South,177,7.0,13.0,47,0.00,,,0.00,325.000000,,2013-04-26 14:52:00,
2013-04-26 10:01:00,51.0,31.0,-100.00,South,177,7.0,13.0,47,0.00,,,0.00,325.000000,,2013-04-26 15:01:00,
2013-04-26 10:12:00,54.0,32.0,-100.00,South,188,10.0,19.0,43,0.00,,,-99.99,361.000000,,2013-04-26 15:12:00,
2013-04-26 10:33:00,54.0,32.0,-100.00,South,188,10.0,19.0,43,0.00,,,-99.99,361.000000,,2013-04-26 15:33:00,
2013-04-26 10:43:00,54.0,32.0,-100.00,South,188,10.0,19.0,43,0.00,,,-99.99,361.000000,,2013-04-26 15:43:00,
2013-04-26 10:53:00,54.0,32.0,-100.00,South,188,10.0,19.0,43,0.00,,,-99.99,361.000000,,2013-04-26 15:53:00,
2013-04-26 11:03:00,54.0,32.0,-100.00,South,188,10.0,19.0,43,0.00,,,-99.99,361.000000,,2013-04-26 16:03:00,
2013-04-26 11:12:00,60.0,34.0,-100.00,South,189,13.0,24.0,37,0.00,,,0.00,638.000000,,2013-04-26 16:12:00,
2013-04-26 11:33:00,60.0,34.0,-100.00,South,189,13.0,24.0,37,0.00,,,0.00,638.000000,,2013-04-26 16:33:00,
2013-04-26 11:42:00,60.0,34.0,-100.00,South,189,13.0,24.0,37,0.00,,,0.00,638.000000,,2013-04-26 16:42:00,
2013-04-26 11:53:00,60.0,34.0,-100.00,South,189,13.0,24.0,37,0.00,,,0.00,638.000000,,2013-04-26 16:53:00,
2013-04-26 12:02:00,60.0,34.0,-100.00,South,189,13.0,24.0,37,0.00,,,0.00,638.000000,,2013-04-26 17:02:00,
2013-04-26 12:12:00,66.0,36.0,-100.00,SSW,198,11.0,22.0,33,0.00,,,0.00,674.000000,,2013-04-26 17:12:00,
2013-04-26 12:42:00,66.0,36.0,-100.00,SSW,198,11.0,22.0,33,0.00,,,0.00,674.000000,,2013-04-26 17:42:00,
2013-04-26 12:52:00,66.0,36.0,-100.00,SSW,198,11.0,22.0,33,0.00,,,0.00,674.000000,,2013-04-26 17:52:00,
2013-04-26 13:02:00,66.0,36.0,-100.00,SSW,198,11.0,22.0,33,0.00,,,0.00,674.000000,,2013-04-26 18:02:00,
2013-04-26 13:12:00,67.0,35.0,-100.00,SSW,212,13.0,25.0,30,0.00,,,-99.99,855.000000,,2013-04-26 18:12:00,
2013-04-26 13:33:00,67.0,35.0,-100.00,SSW,212,13.0,25.0,30,0.00,,,-99.99,855.000000,,2013-04-26 18:33:00,
2013-04-26 13:42:00,67.0,35.0,-100.00,SSW,212,13.0,25.0,30,0.00,,,-99.99,855.000000,,2013-04-26 18:42:00,
2013-04-26 13:52:00,67.0,35.0,-100.00,SSW,212,13.0,25.0,30,0.00,,,-99.99,855.000000,,2013-04-26 18:52:00,
2013-04-26 14:01:00,67.0,35.0,-100.00,SSW,212,13.0,25.0,30,0.00,,,-99.99,855.000000,,2013-04-26 19:01:00,
2013-04-26 14:32:00,68.0,35.0,-100.00,SSW,203,12.0,24.0,29,0.00,,,0.00,770.000000,,2013-04-26 19:32:00,
2013-04-26 14:42:00,68.0,35.0,-100.00,SSW,203,12.0,24.0,29,0.00,,,0.00,770.000000,,2013-04-26 19:42:00,
2013-04-26 14:52:00,68.0,35.0,-100.00,SSW,203,12.0,24.0,29,0.00,,,0.00,770.000000,,2013-04-26 19:52:00,
2013-04-26 15:02:00,68.0,35.0,-100.00,SSW,203,12.0,24.0,29,0.00,,,0.00,770.000000,,2013-04-26 20:02:00,
2013-04-26 15:11:00,68.0,35.0,-100.00,SSW,203,12.0,24.0,29,0.00,,,0.00,770.000000,,2013-04-26 20:11:00,
2013-04-26 15:42:00,70.0,36.0,-100.00,SSW,211,11.0,23.0,29,0.00,,,0.00,666.000000,,2013-04-26 20:42:00,
2013-04-26 15:52:00,70.0,36.0,-100.00,SSW,211,11.0,23.0,29,0.00,,,0.00,666.000000,,2013-04-26 20:52:00,
2013-04-26 16:02:00,70.0,36.0,-100.00,SSW,211,11.0,23.0,29,0.00,,,0.00,666.000000,,2013-04-26 21:02:00,
2013-04-26 16:11:00,70.0,36.0,-100.00,SSW,211,11.0,23.0,29,0.00,,,0.00,666.000000,,2013-04-26 21:11:00,
2013-04-26 16:12:00,71.0,38.0,-100.00,SSW,206,11.0,23.0,30,0.00,,,0.00,560.000000,,2013-04-26 21:12:00,
2013-04-26 16:33:00,71.0,38.0,-100.00,SSW,206,11.0,23.0,30,0.00,,,0.00,560.000000,,2013-04-26 21:33:00,
2013-04-26 16:42:00,71.0,38.0,-100.00,SSW,206,11.0,23.0,30,0.00,,,0.00,560.000000,,2013-04-26 21:42:00,
2013-04-26 16:53:00,71.0,38.0,-100.00,SSW,206,11.0,23.0,30,0.00,,,0.00,560.000000,,2013-04-26 21:53:00,
2013-04-26 17:02:00,71.0,38.0,-100.00,SSW,206,11.0,23.0,30,0.00,,,0.00,560.000000,,2013-04-26 22:02:00,
2013-04-26 17:33:00,71.0,39.0,-100.00,SW,230,11.0,21.0,31,0.00,,,0.00,364.000000,,2013-04-26 22:33:00,
2013-04-26 17:42:00,71.0,39.0,-100.00,SW,230,11.0,21.0,31,0.00,,,0.00,364.000000,,2013-04-26 22:42:00,
2013-04-26 17:52:00,71.0,39.0,-100.00,SW,230,11.0,21.0,31,0.00,,,0.00,364.000000,,2013-04-26 22:52:00,
2013-04-26 18:02:00,71.0,39.0,-100.00,SW,230,11.0,21.0,31,0.00,,,0.00,364.000000,,2013-04-26 23:02:00,
2013-04-26 18:11:00,71.0,39.0,-100.00,SW,230,11.0,21.0,31,0.00,,,0.00,364.000000,,2013-04-26 23:11:00,
2013-04-26 18:32:00,69.0,40.0,-100.00,SW,224,11.0,22.0,35,0.00,,,0.00,220.000000,,2013-04-26 23:32:00,
2013-04-26 18:42:00,69.0,40.0,-100.00,SW,224,11.0,22.0,35,0.00,,,0.00,220.000000,,2013-04-26 23:42:00,
2013-04-26 18:52:00,69.0,40.0,-100.00,SW,224,11.0,22.0,35,0.00,,,0.00,220.000000,,2013-04-26 23:52:00,
2013-04-26 19:01:00,69.0,40.0,-100.00,SW,224,11.0,22.0,35,0.00,,,0.00,220.000000,,2013-04-27 00:01:00,
2013-04-26 19:11:00,69.0,40.0,-100.00,SW,224,11.0,22.0,35,0.00,,,0.00,220.000000,,2013-04-27 00:11:00,
2013-04-26 19:12:00,67.0,43.0,-100.00,SSW,209,8.0,22.0,42,0.00,,,0.00,77.000000,,2013-04-27 00:12:00,
2013-04-26 19:32:00,67.0,43.0,-100.00,SSW,209,8.0,22.0,42,0.00,,,0.00,77.000000,,2013-04-27 00:32:00,
2013-04-26 19:42:00,67.0,43.0,-100.00,SSW,209,8.0,22.0,42,0.00,,,0.00,77.000000,,2013-04-27 00:42:00,
2013-04-26 19:52:00,67.0,43.0,-100.00,SSW,209,8.0,22.0,42,0.00,,,0.00,77.000000,,2013-04-27 00:52:00,
2013-04-26 20:01:00,67.0,43.0,-100.00,SSW,209,8.0,22.0,42,0.00,,,0.00,77.000000,,2013-04-27 01:01:00,
2013-04-26 20:42:00,64.0,43.0,-100.00,SSW,199,8.0,16.0,46,0.00,,,0.00,19.000000,,2013-04-27 01:42:00,
2013-04-26 20:52:00,64.0,43.0,-100.00,SSW,199,8.0,16.0,46,0.00,,,0.00,19.000000,,2013-04-27 01:52:00,
2013-04-26 21:01:00,64.0,43.0,-100.00,SSW,199,8.0,16.0,46,0.00,,,0.00,19.000000,,2013-04-27 02:01:00,
2013-04-26 21:11:00,64.0,43.0,-100.00,SSW,199,8.0,16.0,46,0.00,,,0.00,19.000000,,2013-04-27 02:11:00,
2013-04-26 21:42:00,62.0,43.0,-100.00,SSW,198,7.0,10.0,50,0.00,,,0.00,0.000000,,2013-04-27 02:42:00,
2013-04-26 21:52:00,62.0,43.0,-100.00,SSW,198,7.0,10.0,50,0.00,,,0.00,0.000000,,2013-04-27 02:52:00,
2013-04-26 22:02:00,62.0,43.0,-100.00,SSW,198,7.0,10.0,50,0.00,,,0.00,0.000000,,2013-04-27 03:02:00,
2013-04-26 22:11:00,62.0,43.0,-100.00,SSW,198,7.0,10.0,50,0.00,,,0.00,0.000000,,2013-04-27 03:11:00,
2013-04-26 22:12:00,60.0,42.0,-100.00,South,190,7.0,13.0,51,0.00,,,0.00,0.000000,,2013-04-27 03:12:00,
2013-04-26 22:43:00,60.0,42.0,-100.00,South,190,7.0,13.0,51,0.00,,,0.00,0.000000,,2013-04-27 03:43:00,
2013-04-26 22:53:00,60.0,42.0,-100.00,South,190,7.0,13.0,51,0.00,,,0.00,0.000000,,2013-04-27 03:53:00,
2013-04-26 23:03:00,60.0,42.0,-100.00,South,190,7.0,13.0,51,0.00,,,0.00,0.000000,,2013-04-27 04:03:00,
2013-04-26 23:12:00,58.0,43.0,-100.00,SSW,202,7.0,12.0,57,0.00,,,0.00,0.000000,,2013-04-27 04:12:00,
2013-04-26 23:43:00,58.0,43.0,-100.00,SSW,202,7.0,12.0,57,0.00,,,0.00,0.000000,,2013-04-27 04:43:00,
2013-04-26 23:53:00,58.0,43.0,-100.00,SSW,202,7.0,12.0,57,0.00,,,0.00,0.000000,,2013-04-27 04:53:00,